Malmstrom AFB, MT

3:46 PM MDT on June 24, 2018 (GMT -0600)
Malmstrom AFB

Weather History for KGFA - October, 2017

Change the Weather History Date:

Thursday, October 12, 2017

  Actual Average (KGTF) Record (KGTF)
Temperature  
Mean Temperature 36 °F -  
Max Temperature 48 °F 58 °F 85 °F (1934)
Min Temperature 25 °F 37 °F 13 °F (2009)
Degree Days  
Heating Degree Days 28    
Moisture  
Dew Point 22 °F    
Average Humidity 58    
Maximum Humidity 88    
Minimum Humidity 30    
Precipitation  
Precipitation 0.00 in - - ()
Sea Level Pressure  
Sea Level Pressure 30.05 in    
Wind  
Wind Speed 10 mph (WSW)    
Max Wind Speed 26 mph    
Max Gust Speed 29 mph    
Visibility 10 miles    
Events Rain    
Averages and records for this station are not official NWS values.
T = Trace of Precipitation, MM = Missing Value Source: NWS Daily Summary

Daily Weather History Graph

Daily Weather History Graph

Search for Another Location

Airport or City:

Astronomy

Oct. 12, 2017 Rise Set
Actual Time 7:39 AM MDT 6:41 PM MDT
Civil Twilight 7:08 AM MDT 7:12 PM MDT
Nautical Twilight 6:33 AM MDT 7:48 PM MDT
Astronomical Twilight 5:57 AM MDT 8:23 PM MDT
Moon No Moon Rise 3:07 PM MDT (10/12)
Length of Visible Light 12h 03m
Length of Day
11h 02m
Waning Gibbous, 48% of the Moon is Illuminated
Oct 12
Waning Gibbous
Oct 19
New
Oct 27
First Quarter
Nov 3
Full
Nov 10
Last Quarter

Hourly Weather History & Observations

Time (MDT) Temp. Windchill Dew Point Humidity Pressure Visibility Wind Dir Wind Speed Gust Speed Precip Events Conditions
12:58 AM 28.4 °F 19.1 °F 21.9 °F 77% 29.97 in 10.0 mi SW 10.4 mph - N/A   Clear
1:58 AM 29.8 °F 22.2 °F 22.6 °F 75% 29.98 in 10.0 mi WSW 8.1 mph - N/A   Clear
2:58 AM 32.7 °F 26.4 °F 23.0 °F 67% 29.99 in 10.0 mi WSW 6.9 mph - N/A   Clear
3:58 AM 26.1 °F 19.4 °F 21.0 °F 81% 30.00 in 10.0 mi SW 5.8 mph - N/A   Clear
4:58 AM 26.4 °F 16.0 °F 23.2 °F 88% 30.01 in 10.0 mi SW 11.5 mph - N/A   Clear
5:58 AM 25.0 °F 15.5 °F 20.7 °F 84% 30.02 in 10.0 mi SW 9.2 mph - N/A   Clear
6:58 AM 26.1 °F 21.9 °F 20.8 °F 81% 30.03 in 10.0 mi West 3.5 mph - N/A   Mostly Cloudy
7:58 AM 26.8 °F 20.2 °F 21.4 °F 80% 30.05 in 10.0 mi WSW 5.8 mph - N/A   Partly Cloudy
8:58 AM 35.6 °F 28.6 °F 23.7 °F 62% 30.05 in 10.0 mi SW 9.2 mph - N/A   Partly Cloudy
9:58 AM 40.1 °F 34.1 °F 26.1 °F 57% 30.04 in 10.0 mi SW 9.2 mph - N/A   Clear
10:58 AM 43.5 °F 35.8 °F 23.7 °F 46% 30.06 in 10.0 mi WSW 17.3 mph 23.0 mph N/A   Scattered Clouds
11:58 AM 44.4 °F 36.6 °F 20.8 °F 39% 30.06 in 10.0 mi West 18.4 mph 25.3 mph N/A   Mostly Cloudy
12:58 PM 48.0 °F - 20.1 °F 33% 30.07 in 10.0 mi WSW 26.5 mph - N/A   Partly Cloudy
1:51 PM 44.6 °F 38.1 °F 23.0 °F 43% 30.07 in 10.0 mi SW 13.8 mph 18.4 mph N/A Rain Light Rain
1:58 PM 43.7 °F 36.9 °F 28.0 °F 54% 30.07 in 10.0 mi SW 13.8 mph 18.4 mph N/A Rain Light Rain
2:26 PM 44.6 °F 38.8 °F 24.8 °F 46% 30.06 in 10.0 mi WNW 11.5 mph - N/A   Mostly Cloudy
2:32 PM 42.8 °F 37.5 °F 26.6 °F 53% 30.07 in 10.0 mi WSW 9.2 mph - N/A Rain Light Rain Showers
2:58 PM 45.9 °F 38.8 °F 19.9 °F 36% 30.04 in 10.0 mi WSW 17.3 mph 28.8 mph N/A   Mostly Cloudy
3:58 PM 46.8 °F - 16.5 °F 30% 30.07 in 10.0 mi West 18.4 mph 23.0 mph N/A   Mostly Cloudy
4:58 PM 45.9 °F 37.6 °F 18.1 °F 33% 30.07 in 10.0 mi WSW 23.0 mph 27.6 mph N/A   Mostly Cloudy
5:58 PM 44.1 °F 36.5 °F 20.5 °F 39% 30.09 in 10.0 mi West 17.3 mph 27.6 mph N/A   Scattered Clouds
6:58 PM 41.9 °F 37.5 °F 21.7 °F 45% 30.10 in 10.0 mi SW 6.9 mph - N/A   Mostly Cloudy
7:58 PM 36.1 °F 31.4 °F 20.5 °F 53% 30.10 in 10.0 mi WSW 5.8 mph - N/A   Partly Cloudy
8:58 PM 35.4 °F 31.5 °F 21.9 °F 58% 30.10 in 10.0 mi WSW 4.6 mph - N/A   Scattered Clouds
9:58 PM 33.6 °F 29.4 °F 23.2 °F 66% 30.08 in 10.0 mi SW 4.6 mph - N/A   Mostly Cloudy
10:58 PM 34.3 °F - 23.5 °F 65% 30.09 in 10.0 mi Calm Calm - N/A   Mostly Cloudy
11:58 PM 33.6 °F 29.4 °F 23.5 °F 67% 30.09 in 10.0 mi SSW 4.6 mph - N/A   Mostly Cloudy